AUA10A LOWW-LOWI

Flight info

Callsign AUA10A
Flight time N/A
Altitude 30000
Route SOVIL DCT SITNI DCT BAGSI DCT NANIT NANIT2A
Aircraft A320/M-SDE3FGHIRWY/LB1

Departure

Time 2026-05-05 18:27
Airport Vienna International Airport (LOWW)

Arrival

Time N/A
Airport Innsbruck Airport (LOWI)
Time Latitude Longitude Altitude Speed Heading
2026-05-05 17:58 48.11879 16.56822 614 ft 0 kts 206°
2026-05-05 18:18 48.11893 16.56832 625 ft 4 kts 201°
2026-05-05 18:18 48.11919 16.56843 617 ft 4 kts 185°
2026-05-05 18:18 48.11945 16.56840 619 ft 4 kts 154°
2026-05-05 18:19 48.11959 16.56823 626 ft 0 kts 116°
2026-05-05 18:22 48.11958 16.56825 626 ft 1 kts 116°
2026-05-05 18:22 48.11954 16.56840 626 ft 3 kts 115°
2026-05-05 18:22 48.11935 16.56896 613 ft 9 kts 115°
2026-05-05 18:23 48.11906 16.56988 610 ft 10 kts 116°
2026-05-05 18:23 48.11872 16.57088 610 ft 11 kts 117°
2026-05-05 18:23 48.11854 16.57194 610 ft 11 kts 98°
2026-05-05 18:23 48.11838 16.57300 616 ft 11 kts 79°
2026-05-05 18:24 48.11896 16.57308 618 ft 11 kts 345°
2026-05-05 18:24 48.11971 16.57297 615 ft 10 kts 32°
2026-05-05 18:24 48.11994 16.57356 610 ft 6 kts 72°
2026-05-05 18:24 48.12005 16.57408 610 ft 4 kts 73°
2026-05-05 18:25 48.12011 16.57449 614 ft 4 kts 80°
2026-05-05 18:25 48.12013 16.57472 610 ft 4 kts 87°
2026-05-05 18:25 48.11994 16.57600 610 ft 13 kts 105°
2026-05-05 18:25 48.11969 16.57739 618 ft 13 kts 106°
2026-05-05 18:26 48.11955 16.57823 613 ft 7 kts 90°
2026-05-05 18:26 48.11944 16.57832 620 ft 1 kts 166°
2026-05-05 18:26 48.11929 16.57838 616 ft 14 kts 165°
2026-05-05 18:27 48.11579 16.57984 617 ft 87 kts 164°
2026-05-05 18:27 48.10802 16.58310 620 ft 142 kts 165°
2026-05-05 18:27 48.09854 16.58685 1172 ft 144 kts 166°
2026-05-05 18:27 48.08880 16.59087 1873 ft 145 kts 167°
2026-05-05 18:28 48.06820 16.59930 2925 ft 171 kts 174°
2026-05-05 18:28 48.05604 16.59728 3223 ft 190 kts 208°
2026-05-05 18:28 48.04601 16.58269 3639 ft 217 kts 230°
2026-05-05 18:29 48.03655 16.56370 4193 ft 236 kts 232°
2026-05-05 18:29 48.02664 16.54347 5011 ft 245 kts 232°
2026-05-05 18:29 48.01648 16.52276 5921 ft 249 kts 232°
2026-05-05 18:29 48.00606 16.50153 6761 ft 256 kts 232°
2026-05-05 18:30 47.99551 16.48005 7671 ft 258 kts 232°
2026-05-05 18:30 47.98524 16.45788 8531 ft 264 kts 240°
2026-05-05 18:30 47.97943 16.43184 9356 ft 273 kts 259°
2026-05-05 18:30 47.97946 16.40302 10147 ft 282 kts 270°
2026-05-05 18:31 47.98069 16.37267 10502 ft 305 kts 270°
2026-05-05 18:31 47.98203 16.33987 10770 ft 328 kts 270°
2026-05-05 18:31 47.98342 16.30517 11293 ft 340 kts 271°
2026-05-05 18:31 47.98487 16.26965 12014 ft 345 kts 271°
2026-05-05 18:32 47.98633 16.23380 12825 ft 347 kts 271°
2026-05-05 18:32 47.98776 16.19751 13543 ft 353 kts 271°
2026-05-05 18:32 47.98914 16.16085 14220 ft 356 kts 271°
2026-05-05 18:32 47.99052 16.12370 14838 ft 361 kts 271°
2026-05-05 18:33 47.99264 16.08620 15534 ft 364 kts 273°
2026-05-05 18:33 47.99548 16.04842 16178 ft 368 kts 274°
2026-05-05 18:33 47.99868 16.01040 16853 ft 371 kts 275°
2026-05-05 18:33 48.00199 15.97203 17503 ft 374 kts 275°
2026-05-05 18:34 48.00521 15.93322 18121 ft 378 kts 274°
2026-05-05 18:34 48.00834 15.89405 18688 ft 382 kts 274°
2026-05-05 18:34 48.01142 15.85448 19279 ft 384 kts 274°
2026-05-05 18:34 48.01448 15.81474 19880 ft 386 kts 274°
2026-05-05 18:35 48.01746 15.77519 20467 ft 389 kts 274°
2026-05-05 18:35 48.02045 15.73487 21045 ft 392 kts 274°
2026-05-05 18:35 48.02343 15.69419 21595 ft 396 kts 274°
2026-05-05 18:35 48.02643 15.65320 22129 ft 399 kts 274°
2026-05-05 18:36 48.02944 15.61180 22648 ft 402 kts 274°
2026-05-05 18:36 48.03242 15.57014 23155 ft 405 kts 274°
2026-05-05 18:36 48.03541 15.52812 23584 ft 408 kts 274°
2026-05-05 18:36 48.03843 15.48595 23726 ft 408 kts 274°
2026-05-05 18:37 48.04144 15.44373 23822 ft 412 kts 274°
2026-05-05 18:37 48.04451 15.40095 24242 ft 414 kts 274°
2026-05-05 18:37 48.04728 15.35799 24648 ft 416 kts 272°
2026-05-05 18:37 48.04889 15.31475 25056 ft 417 kts 269°
2026-05-05 18:38 48.04957 15.27141 25470 ft 418 kts 268°
2026-05-05 18:38 48.04730 15.22832 25863 ft 416 kts 255°
2026-05-05 18:38 48.03916 15.18690 26227 ft 417 kts 250°
2026-05-05 18:38 48.03023 15.14561 26606 ft 419 kts 250°
2026-05-05 18:39 48.02108 15.10423 26972 ft 421 kts 250°
2026-05-05 18:39 48.01177 15.06259 27312 ft 423 kts 250°
2026-05-05 18:39 48.00240 15.02079 27663 ft 425 kts 250°
2026-05-05 18:39 47.99302 14.97884 28010 ft 427 kts 250°
2026-05-05 18:40 47.98369 14.93717 28307 ft 429 kts 250°
2026-05-05 18:40 47.97421 14.89478 28627 ft 431 kts 249°
2026-05-05 18:40 47.96472 14.85218 28937 ft 433 kts 250°
2026-05-05 18:40 47.95540 14.80939 29233 ft 435 kts 250°
2026-05-05 18:41 47.94617 14.76629 29539 ft 437 kts 250°
2026-05-05 18:41 47.93695 14.72309 29809 ft 438 kts 250°
2026-05-05 18:41 47.92767 14.67967 30013 ft 441 kts 250°
2026-05-05 18:41 47.91830 14.63614 30275 ft 441 kts 250°
2026-05-05 18:42 47.90893 14.59277 30606 ft 439 kts 250°
2026-05-05 18:42 47.89952 14.54951 30737 ft 436 kts 250°
2026-05-05 18:42 47.88102 14.46482 30767 ft 426 kts 250°
2026-05-05 18:43 47.86269 14.38129 30770 ft 424 kts 250°
2026-05-05 18:43 47.84432 14.29786 30769 ft 424 kts 250°
2026-05-05 18:44 47.82591 14.21461 30780 ft 423 kts 250°
2026-05-05 18:44 47.80752 14.13182 30781 ft 424 kts 250°
2026-05-05 18:45 47.78900 14.04867 30780 ft 423 kts 250°
2026-05-05 18:45 47.77042 13.96580 30815 ft 422 kts 250°
2026-05-05 18:46 47.75181 13.88323 30821 ft 420 kts 250°
2026-05-05 18:46 47.73331 13.80105 30815 ft 419 kts 250°
2026-05-05 18:47 47.71474 13.71903 30830 ft 418 kts 250°
2026-05-05 18:47 47.69613 13.63717 30826 ft 418 kts 250°
2026-05-05 18:48 47.68113 13.55425 30821 ft 419 kts 255°
2026-05-05 18:48 47.66866 13.46975 30847 ft 419 kts 255°
2026-05-05 18:49 47.65654 13.38528 30847 ft 418 kts 255°
2026-05-05 18:49 47.64417 13.30111 30842 ft 417 kts 255°
2026-05-05 18:50 47.63149 13.21717 30848 ft 417 kts 255°
2026-05-05 18:50 47.61869 13.13334 30849 ft 416 kts 255°
2026-05-05 18:51 47.60500 13.05021 30848 ft 413 kts 247°
2026-05-05 18:51 47.58219 12.97231 30843 ft 411 kts 244°
2026-05-05 18:52 47.56295 12.90801 30846 ft 411 kts 244°